| time (UTC) | temp F | wind direction | speed MPH | gust MPH | rain 1hr in | rain 24hr in | rain mn in | humidity % | barometer mb |
| 20260904213106 | 74 | 231 | 5.0 | 12.0 | 0.00 | 0.03 | 0.00 | 54 | 1013.7 |
| 20260904211613 | 73 | 254 | 5.0 | 12.0 | 0.00 | 0.03 | 0.00 | 56 | 1013.7 |
| 20260904210104 | 74 | 282 | 4.0 | 12.0 | 0.00 | 0.03 | 0.00 | 55 | 1013.7 |
| 20260904204606 | 73 | 247 | 3.0 | 11.0 | 0.00 | 0.03 | 0.00 | 56 | 1013.6 |
| 20260904203106 | 74 | 292 | 4.0 | 9.0 | 0.00 | 0.03 | 0.00 | 52 | 1013.7 |
| 20260904201610 | 72 | 0 | 1.0 | 8.0 | 0.00 | 0.03 | 0.00 | 55 | 1013.6 |
| 20260904200120 | 72 | 242 | 4.0 | 10.0 | 0.00 | 0.03 | 0.00 | 54 | 1013.8 |
| 20260904194617 | 72 | 246 | 3.0 | 7.0 | 0.00 | 0.03 | 0.00 | 56 | 1013.9 |
| 20260904193111 | 71 | 355 | 2.0 | 9.0 | 0.00 | 0.03 | 0.00 | 61 | 1014.1 |
| 20260904191601 | 70 | 252 | 1.0 | 9.0 | 0.00 | 0.03 | 0.00 | 61 | 1014.2 |
| 20260904184623 | 69 | 0 | 0.0 | 4.0 | 0.00 | 0.05 | 0.00 | 68 | 1014.4 |
| 20260904183120 | 67 | 175 | 1.0 | 8.0 | 0.00 | 0.05 | 0.00 | 70 | 1014.4 |
| 20260904181605 | 66 | 218 | 3.0 | 8.0 | 0.00 | 0.05 | 0.00 | 73 | 1014.5 |
| 20260904180122 | 66 | 329 | 1.0 | 4.0 | 0.00 | 0.05 | 0.00 | 75 | 1014.5 |
| 20260904174610 | 65 | 248 | 1.0 | 4.0 | 0.00 | 0.09 | 0.00 | 79 | 1014.4 |
| 20260904173104 | 61 | 281 | 2.0 | 6.0 | 0.00 | 0.09 | 0.00 | 90 | 1014.4 |
| 20260904171603 | 59 | 312 | 0.0 | 3.0 | 0.00 | 0.09 | 0.00 | 94 | 1014.3 |
| 20260904170100 | 58 | 265 | 2.0 | 5.0 | 0.00 | 0.09 | 0.00 | 95 | 1014.3 |
| 20260904164600 | 57 | 0 | 0.0 | 0.0 | 0.00 | 0.12 | 0.00 | 95 | 1014.3 |
| 20260904163105 | 56 | 340 | 1.0 | 4.0 | 0.00 | 0.12 | 0.00 | 95 | 1014.3 |
| 20260904161633 | 55 | 0 | 0.0 | 3.0 | 0.00 | 0.12 | 0.00 | 95 | 1014.3 |
| 20260904154601 | 54 | 0 | 0.0 | 2.0 | 0.00 | 0.18 | 0.00 | 95 | 1014.3 |
| 20260904153103 | 54 | 360 | 0.0 | 3.0 | 0.00 | 0.18 | 0.00 | 95 | 1014.2 |
| 20260904151605 | 54 | 0 | 0.0 | 0.0 | 0.00 | 0.18 | 0.00 | 95 | 1014.2 |
| 20260904150104 | 54 | 0 | 0.0 | 4.0 | 0.00 | 0.18 | 0.00 | 95 | 1014.1 |
| 20260904144608 | 54 | 297 | 0.0 | 3.0 | 0.00 | 0.18 | 0.00 | 95 | 1013.9 |
| 20260904143102 | 55 | 0 | 0.0 | 2.0 | 0.00 | 0.18 | 0.00 | 95 | 1013.7 |
| 20260904141601 | 55 | 0 | 1.0 | 3.0 | 0.00 | 0.18 | 0.00 | 94 | 1013.6 |
| 20260904140104 | 54 | 294 | 0.0 | 2.0 | 0.00 | 0.18 | 0.00 | 94 | 1013.4 |
| 20260904134616 | 54 | 0 | 1.0 | 2.0 | 0.00 | 0.18 | 0.00 | 94 | 1013.3 |
| 20260904133118 | 54 | 0 | 0.0 | 2.0 | 0.00 | 0.18 | 0.00 | 94 | 1013.1 |
| 20260904131605 | 54 | 0 | 0.0 | 1.0 | 0.00 | 0.18 | 0.00 | 94 | 1013.0 |
| 20260904130107 | 54 | 217 | 0.0 | 3.0 | 0.00 | 0.18 | 0.00 | 94 | 1012.9 |
| 20260904124610 | 54 | 0 | 0.0 | 3.0 | 0.00 | 0.19 | 0.00 | 94 | 1012.8 |
| 20260904123122 | 55 | 0 | 0.0 | 0.0 | 0.00 | 0.19 | 0.00 | 94 | 1012.6 |
| 20260904121620 | 55 | 0 | 0.0 | 0.0 | 0.00 | 0.19 | 0.00 | 94 | 1012.5 |
| 20260904120111 | 55 | 0 | 0.0 | 2.0 | 0.00 | 0.19 | 0.00 | 94 | 1012.6 |
| 20260904114605 | 55 | 97 | 0.0 | 0.0 | 0.00 | 0.19 | 0.00 | 94 | 1012.5 |
| 20260904113107 | 55 | 0 | 0.0 | 0.0 | 0.00 | 0.19 | 0.00 | 93 | 1012.5 |
| 20260904111616 | 55 | 0 | 0.0 | 0.0 | 0.00 | 0.19 | 0.00 | 94 | 1012.5 |
| 20260904110105 | 54 | 0 | 0.0 | 0.0 | 0.00 | 0.19 | 0.00 | 93 | 1012.5 |
| 20260904104601 | 54 | 0 | 0.0 | 0.0 | 0.00 | 0.19 | 0.00 | 93 | 1012.5 |
| 20260904103101 | 54 | 0 | 0.0 | 0.0 | 0.00 | 0.19 | 0.00 | 93 | 1012.4 |
| 20260904101609 | 55 | 0 | 0.0 | 0.0 | 0.00 | 0.19 | 0.00 | 93 | 1012.2 |
| 20260904100105 | 55 | 0 | 0.0 | 0.0 | 0.00 | 0.19 | 0.00 | 93 | 1012.3 |
| 20260904094602 | 55 | 0 | 0.0 | 0.0 | 0.00 | 0.19 | 0.00 | 93 | 1012.3 |
| 20260904093118 | 55 | 0 | 0.0 | 0.0 | 0.00 | 0.19 | 0.00 | 93 | 1012.3 |
| 20260904091604 | 56 | 0 | 0.0 | 0.0 | 0.00 | 0.19 | 0.00 | 93 | 1012.2 |
| 20260904090107 | 56 | 0 | 0.0 | 0.0 | 0.00 | 0.19 | 0.00 | 92 | 1012.2 |
| 20260904084609 | 56 | 0 | 0.0 | 0.0 | 0.00 | 0.19 | 0.00 | 92 | 1012.2 |
| 20260904083111 | 56 | 0 | 0.0 | 0.0 | 0.00 | 0.19 | 0.00 | 92 | 1012.2 |
| 20260904081605 | 57 | 0 | 0.0 | 0.0 | 0.00 | 0.19 | 0.00 | 92 | 1012.3 |
| 20260904080106 | 57 | 0 | 0.0 | 0.0 | 0.00 | 0.19 | 0.00 | 92 | 1012.2 |
| 20260904074611 | 57 | 0 | 0.0 | 2.0 | 0.00 | 0.19 | 0.00 | 92 | 1012.1 |
| 20260904073109 | 58 | 0 | 0.0 | 0.0 | 0.00 | 0.19 | 0.00 | 92 | 1012.1 |
| 20260904071601 | 58 | 0 | 0.0 | 0.0 | 0.00 | 0.19 | 0.00 | 92 | 1012.1 |
| 20260904064628 | 59 | 0 | 0.0 | 0.0 | 0.00 | 0.19 | 0.19 | 91 | 1012.1 |
| 20260904063130 | 59 | 0 | 0.0 | 3.0 | 0.00 | 0.19 | 0.19 | 91 | 1012.2 |
| 20260904061600 | 60 | 0 | 0.0 | 3.0 | 0.00 | 0.19 | 0.19 | 91 | 1012.0 |
| 20260904060128 | 60 | 0 | 0.0 | 0.0 | 0.00 | 0.19 | 0.19 | 91 | 1012.0 |
| 20260904054605 | 61 | 229 | 0.0 | 1.0 | 0.00 | 0.19 | 0.19 | 91 | 1012.1 |
| 20260904053103 | 61 | 0 | 0.0 | 2.0 | 0.00 | 0.19 | 0.19 | 91 | 1012.1 |
| 20260904051604 | 61 | 0 | 0.0 | 3.0 | 0.00 | 0.19 | 0.19 | 91 | 1012.2 |
| 20260904050105 | 62 | 0 | 0.0 | 3.0 | 0.00 | 0.19 | 0.19 | 90 | 1012.2 |
| 20260904044605 | 62 | 156 | 0.0 | 1.0 | 0.00 | 0.19 | 0.19 | 91 | 1012.2 |
| 20260904043112 | 62 | 155 | 0.0 | 2.0 | 0.00 | 0.19 | 0.19 | 91 | 1012.2 |
| 20260904041602 | 62 | 0 | 0.0 | 2.0 | 0.00 | 0.19 | 0.19 | 91 | 1012.0 |
| 20260904040105 | 62 | 159 | 0.0 | 2.0 | 0.00 | 0.19 | 0.19 | 91 | 1012.0 |
| 20260904034602 | 62 | 0 | 1.0 | 4.0 | 0.00 | 0.19 | 0.19 | 91 | 1012.0 |
| 20260904033059 | 62 | 0 | 1.0 | 3.0 | 0.00 | 0.19 | 0.19 | 91 | 1011.9 |
| 20260904031605 | 62 | 161 | 0.0 | 3.0 | 0.00 | 0.19 | 0.19 | 90 | 1011.8 |
| 20260904024609 | 62 | 250 | 1.0 | 5.0 | 0.00 | 0.19 | 0.19 | 90 | 1011.7 |
| 20260904023122 | 62 | 246 | 1.0 | 3.0 | 0.00 | 0.19 | 0.19 | 90 | 1011.8 |
| 20260904021608 | 62 | 0 | 0.0 | 5.0 | 0.00 | 0.19 | 0.19 | 90 | 1011.9 |
| 20260904020106 | 62 | 0 | 1.0 | 4.0 | 0.00 | 0.19 | 0.19 | 90 | 1012.0 |
| 20260904014607 | 62 | 173 | 0.0 | 5.0 | 0.00 | 0.19 | 0.19 | 90 | 1012.2 |
| 20260904013124 | 62 | 143 | 0.0 | 5.0 | 0.00 | 0.19 | 0.19 | 90 | 1012.2 |
| 20260904011603 | 62 | 0 | 2.0 | 4.0 | 0.01 | 0.19 | 0.19 | 90 | 1012.2 |
| 20260904010101 | 62 | 198 | 2.0 | 6.0 | 0.01 | 0.19 | 0.19 | 91 | 1012.3 |
| 20260904004601 | 62 | 153 | 1.0 | 5.0 | 0.01 | 0.19 | 0.19 | 91 | 1012.3 |
| 20260904003103 | 62 | 99 | 1.0 | 9.0 | 0.01 | 0.19 | 0.19 | 91 | 1012.3 |
| 20260904001609 | 62 | 239 | 2.0 | 6.0 | 0.01 | 0.18 | 0.18 | 91 | 1012.4 |
| 20260904000055 | 62 | 166 | 2.0 | 6.0 | 0.02 | 0.18 | 0.18 | 90 | 1012.7 |
| 20260903234558 | 62 | 160 | 2.0 | 5.0 | 0.02 | 0.18 | 0.18 | 89 | 1012.8 |
| 20260903233102 | 63 | 170 | 0.0 | 4.0 | 0.02 | 0.18 | 0.18 | 88 | 1012.9 |
| 20260903231608 | 63 | 270 | 3.0 | 8.0 | 0.01 | 0.17 | 0.17 | 86 | 1013.1 |
| 20260903224604 | 65 | 273 | 3.0 | 9.0 | 0.00 | 0.16 | 0.16 | 80 | 1013.2 |
| 20260903223112 | 65 | 165 | 3.0 | 11.0 | 0.00 | 0.16 | 0.16 | 80 | 1013.3 |
| 20260903221603 | 67 | 291 | 4.0 | 11.0 | 0.00 | 0.16 | 0.16 | 76 | 1013.3 |
| 20260903220105 | 69 | 248 | 5.0 | 11.0 | 0.00 | 0.16 | 0.16 | 72 | 1013.3 |
| 20260903214600 | 69 | 294 | 4.0 | 10.0 | 0.00 | 0.16 | 0.16 | 72 | 1013.2 |